Yellowstone, WY

4:49 AM MDT on May 29, 2017 (GMT -0600)
Yellowstone

Weather History for KP60 - July, 2013

Change the Weather History Date:

Wednesday, July 17, 2013

  Actual Average Record
Temperature  
Mean Temperature 63 °F 56 °F  
Max Temperature 77 °F 73 °F 82 °F (2006)
Min Temperature 49 °F 40 °F 30 °F (2016)
Degree Days  
Heating Degree Days 2 9  
Month to date heating degree days 95 171  
Since 1 June heating degree days 528 664  
Since 1 July heating degree days 95 171  
Cooling Degree Days 0 0  
Month to date cooling degree days 0 0  
Year to date cooling degree days 0 0  
Since 1 June cooling degree days 0 0  
Growing Degree Days 12 (Base 50)    
Moisture  
Dew Point 52 °F    
Average Humidity 69    
Maximum Humidity 100    
Minimum Humidity 38    
Precipitation  
Precipitation 0.02 in 0.05 in 0.21 in (2000)
Month to date precipitation 0.94 0.77  
Year to date precipitation 10.69 11.85  
Sea Level Pressure  
Sea Level Pressure 30.18 in    
Wind  
Wind Speed 2 mph (East)    
Max Wind Speed 15 mph    
Max Gust Speed 31 mph    
T = Trace of Precipitation, MM = Missing Value Source: NWS Daily Summary

Daily Weather History Graph

Daily Weather History Graph

Search for Another Location

Airport or City:

Trip Planner

Search our weather history database for the weather conditions in past years. The results will help you decide how hot, cold, wet, or windy it might be!

Date:

Astronomy

Jul. 17, 2013 Rise Set
Actual Time 5:53 AM MDT 9:02 PM MDT
Civil Twilight 5:17 AM MDT 9:37 PM MDT
Nautical Twilight 4:32 AM MDT 10:22 PM MDT
Astronomical Twilight 3:37 AM MDT 11:17 PM MDT
Moon 3:52 PM MDT (7/17) 1:06 AM MDT (7/17)
Length of Visible Light 16h 19m
Length of Day
15h 09m
Waxing Gibbous, 68% of the Moon is Illuminated
Jul 17
Waxing Gibbous
Jul 22
Full
Jul 29
Last Quarter
Aug 6
New
Aug 14
First Quarter

Hourly Weather History & Observations

Time (MDT) Temp. Dew Point Humidity Pressure Visibility Wind Dir Wind Speed Gust Speed Precip Events Conditions
12:56 AM 55.9 °F 53.1 °F 90% 30.21 in - Variable 3.5 mph - N/A   Unknown
1:56 AM 55.0 °F 53.1 °F 93% 30.21 in - Calm Calm - 0.01 in   Unknown
2:56 AM 54.0 °F 53.1 °F 97% 30.21 in - Calm Calm - 0.01 in   Unknown
3:56 AM 52.0 °F 51.1 °F 97% 30.19 in - Calm Calm - N/A   Unknown
4:56 AM 50.0 °F 48.9 °F 96% 30.18 in - Calm Calm - N/A   Unknown
5:56 AM 48.9 °F 48.9 °F 100% 30.20 in - Calm Calm - N/A   Unknown
6:56 AM 50.0 °F 48.9 °F 96% 30.21 in - Calm Calm - N/A   Unknown
7:56 AM 55.9 °F 54.0 °F 93% 30.19 in - Calm Calm - N/A   Unknown
8:56 AM 57.9 °F 54.0 °F 87% 30.21 in - Calm Calm - N/A   Unknown
9:56 AM 59.0 °F 54.0 °F 83% 30.21 in - ESE 3.5 mph - N/A   Unknown
10:56 AM 60.1 °F 53.1 °F 78% 30.22 in - SE 3.5 mph - N/A   Unknown
11:56 AM 64.0 °F 51.1 °F 63% 30.19 in - Calm Calm - N/A   Unknown
12:56 PM 66.0 °F 54.0 °F 65% 30.19 in - East 3.5 mph - N/A   Unknown
1:56 PM 66.9 °F 57.0 °F 70% 30.17 in - Variable 5.8 mph - N/A   Unknown
2:56 PM 73.0 °F 57.0 °F 57% 30.13 in - East 4.6 mph - N/A   Unknown
3:56 PM 71.1 °F 54.0 °F 55% 30.12 in - Calm Calm - N/A   Unknown
4:56 PM 75.0 °F 55.0 °F 50% 30.09 in - Calm Calm - N/A   Unknown
5:56 PM 72.0 °F 54.0 °F 53% 30.09 in - Calm Calm - N/A   Unknown
6:56 PM 75.9 °F 48.9 °F 38% 30.07 in - Variable 3.5 mph - N/A   Unknown
7:56 PM 68.0 °F 48.0 °F 49% 30.14 in - NNW 13.8 mph 31.1 mph N/A   Unknown
8:56 PM 61.0 °F 45.0 °F 56% 30.17 in - Calm Calm - N/A   Unknown
9:56 PM 60.1 °F 46.0 °F 60% 30.20 in - Calm Calm - N/A   Unknown
10:56 PM 57.0 °F 46.9 °F 69% 30.20 in - WNW 3.5 mph - N/A   Unknown
11:56 PM 54.0 °F 46.9 °F 77% 30.21 in - Calm Calm - N/A   Unknown